Regional Weather Roundup
Issued by NWS

Home | Current Version | Previous Version | Graphics & Text | Print | Product List | Glossary On
Versions: 1 2 3 4 5 6 7 8 9 10 11 12 13 14 15 16 17 18 19 20 21 22 23 24 25 26 27 28 29 30 31 32 33 34 35 36 37 38 39 40 41 42 43 44 45 46 47 48 49 50
000
ASUS45 KPSR 070210
RWRAZ

ARIZONA HOURLY REGIONAL WEATHER ROUNDUP
NATIONAL WEATHER SERVICE PHOENIX AZ
700 PM MST MON JUL 06 2015

NOTE: FAIR INDICATES FEW OR NO CLOUDS BELOW 12,000 FEET WITH NO
SIGNIFICANT WEATHER AND/OR OBSTRUCTIONS TO VISIBILITY.

AZZ001>003-036-070300-
NORTHWEST ARIZONA

CITY           SKY/WX    TMP DP  RH WIND       PRES   REMARKS
BULLHEAD CITY  MOCLDY   102  54  19 NW6       29.77F HX 100
KINGMAN        PTCLDY    82  57  42 CALM      30.02F
$$

AZZ004>008-015-016-018-070300-
NORTH CENTRAL ARIZONA

CITY           SKY/WX    TMP DP  RH WIND       PRES   REMARKS
GRAND CANYON   MOCLDY    69  48  47 NW3       30.27R
WILLIAMS       PTCLDY    66  54  63 CALM      30.34R
PRESCOTT       PTCLDY    78  55  44 N14       30.14S
FLAGSTAFF      PTCLDY    70  49  47 VRB5      30.28R
PAYSON         PTCLDY    81  52  36 NW5       30.14S
PAGE           CLOUDY    75  54  47 W7        30.11R
$$

AZZ009>014-017-070300-
NORTHEAST ARIZONA

CITY           SKY/WX    TMP DP  RH WIND       PRES   REMARKS
WINSLOW        PTCLDY    84  50  30 NW16      30.10R
SAINT JOHNS    PTCLDY    82  46  28 W15       30.12R
WINDOW ROCK    MOCLDY    68  53  58 NW10      30.23R
SHOW LOW       PTCLDY    73  50  43 SW8       30.22R
$$

AZZ023-070300-
GREATER PHOENIX AREA

CITY           SKY/WX    TMP DP  RH WIND       PRES   REMARKS
PHOENIX        PTCLDY   102  57  22 SW6       29.78F HX 101
BUCKEYE        CLEAR    100  55  22 SW6       29.79F
GLENDALE       MOCLDY   100  63  28 S12       29.80S HX 102
LUKE AFB       MOCLDY   100  59  25 NW23G29   29.79R HX 100
DEER VALLEY    PTCLDY    99  56  23 W13       29.81R
SCOTTSDALE     PTCLDY    99  57  25 SW8       29.83S
MESA-FALCON    MOCLDY   100  57  23 W12       29.81F
MESA-GATEWAY   MOCLDY    99  55  23 NW9       29.84S
CHANDLER       MOCLDY    99  63  30 S14       29.81S HX 100
$$

AZZ027-028-070300-
SOUTHWEST MARICOPA COUNTY AND PINAL COUNTY

CITY           SKY/WX    TMP DP  RH WIND       PRES   REMARKS
CASA GRANDE    CLOUDY    97  63  32 CALM      29.83S
GILA BEND      MOCLDY    90  62  38 S16       29.79S
$$

AZZ503-504-507>509-070300-
SOUTHEAST ARIZONA

CITY           SKY/WX    TMP DP  RH WIND       PRES   REMARKS
TUCSON         MOCLDY    92  59  33 W9        29.98R
DAVIS-MONTHAN  CLOUDY    89  64  44 NW10      29.96R
RYAN FIELD     CLEAR     91  63  38 W13       29.96R
NOGALES        LGT RAIN  72  63  73 NE3       30.08R
SIERRA VISTA   MOCLDY    69  62  78 SW10      30.12F
DOUGLAS        CLOUDY    72  64  76 SE7       30.06S
SAFFORD        MOCLDY    92  55  28 W21       29.91R
$$

AZZ020-021-025-026-031-070300-
SOUTHWEST ARIZONA

CITY           SKY/WX    TMP DP  RH WIND       PRES   REMARKS
YUMA           CLEAR    103  51  17 S12       29.76S HX 100
$$

CAZ031-033-041-043-047-048-061-070300-
SOUTHERN CALIFORNIA

CITY           SKY/WX    TMP DP  RH WIND       PRES   REMARKS
DOWNTOWN L.A.  PTSUNNY   67  59  75 VRB3      29.96S
L.A. AIRPORT   CLOUDY    65  60  84 W10       29.97S
SAN DIEGO      CLOUDY    69  58  67 W9        30.00R
BURBANK        SUNNY     71  59  65 S13       29.94S
ONTARIO        MOSUNNY   77  59  53 SW13      29.94S
RIVERSIDE        N/A    N/A N/A N/A MISG      29.94R
PALM SPRINGS   MOSUNNY  102  57  22 NW16      29.78F HX 101
EL CENTRO NAS  PTCLDY   102  45  14 E12       29.74S
IMPERIAL       CLEAR    102  45  14 SE13      29.72S
BLYTHE         LGT RAIN 104  64  27 S10       29.74F HX 107
NEEDLES        PTCLDY   105  49  15 E7        29.77S HX 102
$$

NVZ020-UTZ003-070300-
SOUTHERN NEVADA-UTAH

CITY           SKY/WX    TMP DP  RH WIND       PRES   REMARKS
LAS VEGAS      TSTM      85  55  35 NW23G43   29.90R
SALT LAKE CITY MOCLDY    80  60  50 S9        30.04S
$$

NMZ009-TXZ055-070300-
NEW MEXICO-WEST TEXAS

CITY           SKY/WX    TMP DP  RH WIND       PRES   REMARKS
ALBUQUERQUE    MOCLDY    74  56  53 E15       30.09R
EL PASO        PTCLDY    94  51  23 W12       29.92R
$$


........................KEY........................
SKY/WX - SKY CONDITION/WEATHER
TMP    - TEMPERATURE IN FAHRENHEIT
DP     - DEW POINT IN FAHRENHEIT
RH     - RELATIVE HUMIDITY IN PERCENT
WIND   - DIRECTION AND SPEED IN MILES PER HOUR (MPH)
VRB    - VARIABLE WIND DIRECTION
PRES   - MEAN SEA LEVEL PRESSURE IN INCHES OF MERCURY
         F - FALLING PRESSURE   R - RISING PRESSURE
         S - STEADY PRESSURE
VSB    - VISIBILITY IN MILES
HX     - HEAT INDEX IN FAHRENHEIT
WCI    - WIND CHILL INDEX IN FAHRENHEIT
TC     - TEMPERATURE IN CELSIUS WHICH IS ALSO KNOWN AS
         TEMPERATURE IN CENTIGRADE
AFB    - AIR FORCE BASE
         LUKE AFB IS LUKE AIR FORCE BASE
         DAVIS-MONTHAN IS DAVIS-MONTHAN AIR FORCE BASE
NAS    - NAVAL AIR STATION
         EL CENTRO NAS IS EL CENTRO NAVAL AIR STATION
N/A    - NOT AVAILABLE



USA.gov is the U.S. government's official web portal to all federal, state and local government web resources and services.